Météo par heure à Kysylyn

Ce jour, 5 Août, Jeudi

Heure Température Précipitation Vent Pression Humidité
00:00 +16°C° 0 mm 1 m/s 741 mmHg 91%
01:00 +15°C° 0 mm 1 m/s 741 mmHg 91%
02:00 +14°C° 0 mm 0 m/s 741 mmHg 91%
03:00 +15°C° 0 mm 1 m/s 741 mmHg 91%
04:00 +15°C° 0 mm 1 m/s 740 mmHg 91%
05:00 +15°C° 0 mm 1 m/s 740 mmHg 91%
06:00 +16°C° 0 mm 2 m/s 740 mmHg 88%
07:00 +17°C° 0 mm 2 m/s 740 mmHg 85%
08:00 +18°C° 0 mm 2 m/s 740 mmHg 83%
09:00 +19°C° 0 mm 2 m/s 740 mmHg 81%
10:00 +19°C° 0 mm 3 m/s 740 mmHg 79%
11:00 +20°C° 0 mm 3 m/s 739 mmHg 76%
12:00 +21°C° 0 mm 3 m/s 739 mmHg 72%
13:00 +22°C° 0 mm 3 m/s 739 mmHg 67%
14:00 +25°C° 0 mm 3 m/s 738 mmHg 62%
15:00 +25°C° 0 mm 3 m/s 738 mmHg 62%
16:00 +25°C° 0 mm 3 m/s 737 mmHg 62%
17:00 +25°C° 0 mm 3 m/s 736 mmHg 62%
18:00 +22°C° 0.6 mm 4 m/s 736 mmHg 71%
19:00 +21°C° 0.6 mm 5 m/s 735 mmHg 80%
20:00 +19°C° 0.6 mm 5 m/s 734 mmHg 89%
21:00 +19°C° 7.9 mm 6 m/s 734 mmHg 91%
22:00 +17°C° 7.9 mm 6 m/s 733 mmHg 94%
23:00 +17°C° 7.9 mm 6 m/s 732 mmHg 97%

Demain, 6 Août, Vendredi

Heure Température Précipitation Vent Pression Humidité
00:00 +17°C° 0.4 mm 5 m/s 732 mmHg 97%
01:00 +18°C° 0.4 mm 4 m/s 732 mmHg 97%
02:00 +17°C° 0.4 mm 3 m/s 731 mmHg 97%
03:00 +17°C° 0 mm 4 m/s 731 mmHg 95%
04:00 +16°C° 0 mm 6 m/s 730 mmHg 94%
05:00 +16°C° 0 mm 7 m/s 730 mmHg 92%
06:00 +16°C° 0 mm 7 m/s 730 mmHg 92%
07:00 +16°C° 0 mm 8 m/s 730 mmHg 92%
08:00 +16°C° 0 mm 9 m/s 731 mmHg 92%
09:00 +17°C° 0 mm 9 m/s 731 mmHg 87%
10:00 +17°C° 0 mm 9 m/s 732 mmHg 82%
11:00 +18°C° 0 mm 9 m/s 733 mmHg 77%
12:00 +20°C° 0 mm 8 m/s 733 mmHg 74%
13:00 +20°C° 0 mm 8 m/s 733 mmHg 71%
14:00 +21°C° 0 mm 7 m/s 734 mmHg 68%
15:00 +20°C° 0 mm 7 m/s 734 mmHg 70%
16:00 +20°C° 0 mm 6 m/s 734 mmHg 73%
17:00 +19°C° 0 mm 6 m/s 735 mmHg 75%
18:00 +17°C° 0 mm 5 m/s 735 mmHg 77%
19:00 +16°C° 0 mm 5 m/s 735 mmHg 80%
20:00 +15°C° 0 mm 4 m/s 736 mmHg 82%
21:00 +14°C° 0 mm 4 m/s 736 mmHg 86%
22:00 +13°C° 0 mm 4 m/s 736 mmHg 90%
23:00 +12°C° 0 mm 4 m/s 737 mmHg 93%

Après-demain, 7 Août, Samedi

Heure Température Précipitation Vent Pression Humidité
00:00 +12°C° 0 mm 4 m/s 737 mmHg 94%
01:00 +11°C° 0 mm 4 m/s 737 mmHg 95%
02:00 +11°C° 0 mm 3 m/s 737 mmHg 96%
03:00 +11°C° 0 mm 3 m/s 737 mmHg 96%
04:00 +11°C° 0 mm 3 m/s 738 mmHg 96%
05:00 +11°C° 0 mm 3 m/s 738 mmHg 96%
06:00 +12°C° 0 mm 3 m/s 738 mmHg 90%
07:00 +14°C° 0 mm 3 m/s 738 mmHg 84%
08:00 +17°C° 0 mm 4 m/s 739 mmHg 78%
09:00 +19°C° 0 mm 4 m/s 739 mmHg 72%
10:00 +21°C° 0 mm 4 m/s 739 mmHg 66%
11:00 +23°C° 0 mm 4 m/s 739 mmHg 60%
12:00 +23°C° 0 mm 5 m/s 739 mmHg 57%
13:00 +25°C° 0 mm 5 m/s 739 mmHg 55%
14:00 +26°C° 0 mm 5 m/s 739 mmHg 53%
15:00 +25°C° 0 mm 4 m/s 739 mmHg 56%
16:00 +25°C° 0 mm 4 m/s 739 mmHg 60%
17:00 +24°C° 0 mm 3 m/s 739 mmHg 63%
18:00 +24°C° 0 mm 2 m/s 740 mmHg 64%
19:00 +23°C° 0 mm 2 m/s 740 mmHg 65%
20:00 +21°C° 0 mm 2 m/s 740 mmHg 66%
21:00 +20°C° 0 mm 2 m/s 740 mmHg 71%
22:00 +19°C° 0 mm 2 m/s 740 mmHg 76%
23:00 +18°C° 0 mm 3 m/s 741 mmHg 81%

8 Août, Dimanche

Heure Température Précipitation Vent Pression Humidité
00:00 +18°C° 0 mm 3 m/s 741 mmHg 80%
01:00 +17°C° 0 mm 3 m/s 741 mmHg 79%
02:00 +17°C° 0 mm 3 m/s 741 mmHg 78%
03:00 +17°C° 0 mm 3 m/s 740 mmHg 79%
04:00 +17°C° 0 mm 3 m/s 740 mmHg 79%
05:00 +16°C° 0 mm 3 m/s 740 mmHg 80%
06:00 +18°C° 0 mm 4 m/s 740 mmHg 75%
07:00 +20°C° 0 mm 5 m/s 741 mmHg 70%
08:00 +21°C° 0 mm 5 m/s 741 mmHg 65%
09:00 +23°C° 0 mm 6 m/s 741 mmHg 60%
10:00 +26°C° 0 mm 6 m/s 741 mmHg 54%
11:00 +28°C° 0 mm 7 m/s 741 mmHg 49%
12:00 +28°C° 0 mm 6 m/s 740 mmHg 48%
13:00 +29°C° 0 mm 6 m/s 740 mmHg 48%
14:00 +29°C° 0 mm 6 m/s 740 mmHg 47%
15:00 +29°C° 0 mm 5 m/s 740 mmHg 48%
16:00 +30°C° 0 mm 4 m/s 740 mmHg 49%
17:00 +30°C° 0 mm 4 m/s 740 mmHg 50%
18:00 +28°C° 0 mm 3 m/s 741 mmHg 57%
19:00 +26°C° 0 mm 3 m/s 741 mmHg 65%
20:00 +24°C° 0 mm 2 m/s 741 mmHg 72%
21:00 +23°C° 0.2 mm 2 m/s 741 mmHg 79%
22:00 +20°C° 0.2 mm 2 m/s 742 mmHg 85%
23:00 +19°C° 0.2 mm 3 m/s 742 mmHg 91%

9 Août, Lundi

Heure Température Précipitation Vent Pression Humidité
00:00 +19°C° 0.2 mm 3 m/s 742 mmHg 93%
01:00 +18°C° 0.2 mm 3 m/s 742 mmHg 94%
02:00 +18°C° 0.2 mm 3 m/s 742 mmHg 96%
03:00 +18°C° 1 mm 3 m/s 742 mmHg 96%
04:00 +18°C° 1 mm 3 m/s 743 mmHg 97%
05:00 +18°C° 1 mm 3 m/s 743 mmHg 97%
06:00 +18°C° 0.3 mm 3 m/s 743 mmHg 94%
07:00 +19°C° 0.3 mm 3 m/s 743 mmHg 91%
08:00 +20°C° 0.3 mm 3 m/s 742 mmHg 89%
09:00 +21°C° 0 mm 3 m/s 743 mmHg 81%
10:00 +22°C° 0 mm 4 m/s 743 mmHg 74%
11:00 +23°C° 0 mm 4 m/s 744 mmHg 67%
12:00 +23°C° 0 mm 4 m/s 744 mmHg 66%
13:00 +23°C° 0 mm 4 m/s 744 mmHg 64%
14:00 +23°C° 0 mm 4 m/s 745 mmHg 63%
15:00 +23°C° 0 mm 4 m/s 745 mmHg 63%
16:00 +23°C° 0 mm 4 m/s 745 mmHg 63%
17:00 +22°C° 0 mm 4 m/s 745 mmHg 63%
18:00 +21°C° 0 mm 4 m/s 745 mmHg 67%
19:00 +20°C° 0 mm 3 m/s 745 mmHg 71%
20:00 +19°C° 0 mm 2 m/s 745 mmHg 75%
21:00 +18°C° 0 mm 2 m/s 746 mmHg 78%
22:00 +17°C° 0 mm 2 m/s 746 mmHg 81%
23:00 +16°C° 0 mm 2 m/s 746 mmHg 84%

10 Août, Mardi

Heure Température Précipitation Vent Pression Humidité
00:00 +16°C° 0 mm 1 m/s 746 mmHg 84%
01:00 +16°C° 0 mm 1 m/s 746 mmHg 85%
02:00 +16°C° 0 mm 1 m/s 746 mmHg 86%
03:00 +15°C° 0 mm 1 m/s 746 mmHg 86%
04:00 +15°C° 0 mm 1 m/s 746 mmHg 87%
05:00 +15°C° 0 mm 1 m/s 746 mmHg 87%
06:00 +16°C° 0 mm 1 m/s 746 mmHg 82%
07:00 +19°C° 0 mm 1 m/s 746 mmHg 77%
08:00 +20°C° 0 mm 1 m/s 746 mmHg 72%
09:00 +21°C° 0 mm 1 m/s 746 mmHg 66%
10:00 +22°C° 0 mm 1 m/s 746 mmHg 61%
11:00 +23°C° 0 mm 2 m/s 746 mmHg 55%
12:00 +24°C° 0 mm 2 m/s 746 mmHg 51%
13:00 +24°C° 0 mm 2 m/s 745 mmHg 48%
14:00 +25°C° 0 mm 2 m/s 745 mmHg 44%
15:00 +25°C° 0 mm 2 m/s 745 mmHg 46%
16:00 +25°C° 0 mm 2 m/s 745 mmHg 47%
17:00 +24°C° 0 mm 2 m/s 745 mmHg 49%
18:00 +23°C° 0 mm 2 m/s 744 mmHg 53%
19:00 +20°C° 0 mm 2 m/s 744 mmHg 58%
20:00 +19°C° 0 mm 2 m/s 744 mmHg 63%
21:00 +18°C° 0 mm 2 m/s 744 mmHg 65%
22:00 +18°C° 0 mm 2 m/s 744 mmHg 67%
23:00 +18°C° 0 mm 1 m/s 744 mmHg 69%
Voir plus

Nous avons besoin de votre consentement

Meteoprog et ses fournisseurs de services peuvent stocker et accéder à des données personnelles telles que des cookies, des identifiants d'appareils ou d'autres technologies similaires sur votre appareil et traiter ces données pour personnaliser le contenu et les publicités, ainsi que pour fournir des fonctionnalités de médias sociaux et analyser le trafic.

  • Stocker et/ou accéder à des informations sur votre appareil

    Des cookies, des identifiants d'appareils ou d'autres informations peuvent être stockés ou accessibles sur votre appareil aux fins indiquées ci-dessus.

  • Annonces et contenus personnalisés, mesure des annonces et des contenus, connaissance de l'audience et développement de produits

    Les annonces et le contenu peuvent être personnalisés en fonction d'un profil. D'autres données peuvent être ajoutées pour mieux personnaliser les annonces et le contenu. Les performances des publicités et du contenu peuvent être mesurées. Il est possible d'obtenir des informations sur le public qui a vu les publicités et le contenu. Ces données peuvent être utilisées pour développer ou améliorer l'expérience de l'utilisateur, les systèmes et les logiciels.

En cliquant sur "J'accepte", vous autorisez l'utilisation de cookies, des identifiants d'appareils, des balises web ou d'autres technologies similaires. Vos paramètres peuvent être modifiés dans le navigateur de votre appareil.

Dans certains cas, des intérêts légitimes peuvent être invoqués plutôt qu'un consentement. Vous pouvez en savoir plus à ce sujet dans notre Politique de confidentialité et de cookies.